sat.trackr.live / text

‹ back to catalog

STARLINK-2705

NORAD 48672 · 2021-044AL

PAYLOAD ACTIVE UNKNOWN

§ Identity

Operator
Country
US
Launch date
2021-05-26
Launch site
AFETR
Launch vehicle
Mass (kg)
RCS (m²)

Purposes: comms

External: N2YO · Heavens-Above · Gunter

§ Orbital elements

Epoch: 2026-05-25T04:24:19.553760Z

Period
94.01 min
Inclination
53.1603°
Eccentricity
0.0001220
Mean motion
15.31697491 rev/d
Perigee alt
469.9 km
Apogee alt
471.6 km
Semi-major
6,848.9 km
B*
3.8294e-5
RAAN
108.5382°
Arg perigee
75.4369°
Mean anomaly
284.6767°
Rev number
27,567

§ Raw data

STARLINK-27051 48672U 21044AL  26145.18355965  .00000823  00000+0  38294-4 0  99902 48672  53.1603 108.5382 0001220  75.4369 284.6767 15.31697491275676

JSON: /api/v1/satellites/48672 · /tle

For live sub-satellite position, see the globe view (requires WebGL).

§ Visibility from observer

Set your observer location to see the next 7 days of passes ≥ 10°. The values pass through the URL so the page stays shareable.

No JS? Fill the form by hand. The geolocation button needs JavaScript.